Waarnemingen

Advertentie
Mijn weer
Lecce, Italië (16332): temperatuur & dauwpunt: 12.12.2017 21:00:00 - 18.12.2017 21:00:00 (CET)Lecce, Italië (16332): windsnelheid: 12.12.2017 21:00:00 - 18.12.2017 21:00:00 (CET)Lecce, Italië (16332): windrichting: 12.12.2017 21:00:00 - 18.12.2017 21:00:00 (CET)Lecce, Italië (16332): luchtdruk: 12.12.2017 21:00:00 - 18.12.2017 21:00:00 (CET)Lecce, Italië (16332): zicht: 12.12.2017 21:00:00 - 18.12.2017 21:00:00 (CET)
Datum & Tijd tt [°C] td [°C] ff [km/u] ff [kn] dd ppp [hPa] vv [km]
18.12.2017 21:00:00 - - - - - - -
18.12.2017 20:00:00 3,0 0,0 16 9 WNW - 10
18.12.2017 19:00:00 3,8 -0,2 15 8 WNW 1019,9 10
18.12.2017 18:00:00 5,0 1,0 18 10 NW - 10
18.12.2017 17:00:00 7,0 2,0 16 9 NW - 10
18.12.2017 16:00:00 7,4 1,0 21 11 NW 1018,5 10
18.12.2017 15:00:00 8,0 1,0 26 14 NW - 10
18.12.2017 14:00:00 9,0 2,0 26 14 NW - 10
18.12.2017 13:00:00 9,8 3,1 28 15 NW 1017,6 10
18.12.2017 12:00:00 9,0 4,0 28 15 NW - 10
18.12.2017 11:00:00 9,0 4,0 21 11 WNW - 10
18.12.2017 10:00:00 8,2 4,2 21 11 NW 1018,5 10
18.12.2017 09:00:00 6,0 4,0 13 7 WNW - 10
18.12.2017 08:00:00 4,0 2,0 11 6 WNW - 10
18.12.2017 07:00:00 4,4 2,8 13 7 WNW 1017,6 10
18.12.2017 06:00:00 5,0 3,0 9 5 WNW - 10
18.12.2017 05:00:00 4,0 2,0 11 6 WNW - 10
18.12.2017 04:00:00 4,8 3,0 9 5 WNW 1017,0 10
18.12.2017 03:00:00 5,0 3,0 11 6 WNW - 10
18.12.2017 02:00:00 5,0 3,0 15 8 W - 10
18.12.2017 01:00:00 4,8 3,3 18 10 W 1016,6 10
18.12.2017 00:00:00 5,0 3,0 15 8 W - 10
17.12.2017 23:00:00 6,0 4,0 15 8 W - 10
17.12.2017 22:00:00 4,4 2,9 11 6 ZW 1015,6 10
17.12.2017 21:00:00 5,0 3,0 4 2 WZW - 10
17.12.2017 20:00:00 6,0 3,0 13 7 W - 10
17.12.2017 19:00:00 6,8 3,2 11 6 W 1014,4 10
17.12.2017 18:00:00 8,0 3,0 8 4 Z - 10
17.12.2017 17:00:00 8,0 4,0 9 5 W - 10
17.12.2017 16:00:00 10,0 4,6 9 5 W 1012,5 10
17.12.2017 15:00:00 11,0 7,0 4 2 - - 10
17.12.2017 14:00:00 11,0 5,0 9 5 N - 10
17.12.2017 13:00:00 11,4 5,1 15 8 N 1011,4 10
17.12.2017 12:00:00 13,0 8,0 13 7 WZW - 10
17.12.2017 11:00:00 12,0 8,0 11 6 WZW - 10
17.12.2017 10:00:00 11,2 8,4 5 3 W 1011,4 10
17.12.2017 09:00:00 10,0 9,0 5 3 ZZW - 10
17.12.2017 08:00:00 8,0 7,0 4 2 - - 10
17.12.2017 07:00:00 8,0 7,1 2 1 N 1010,2 10
17.12.2017 06:00:00 8,0 7,0 9 5 W - 10
17.12.2017 05:00:00 9,0 8,0 15 8 NW - 10
17.12.2017 04:00:00 9,0 8,1 11 6 WZW 1009,4 10
17.12.2017 03:00:00 10,0 9,0 16 9 ZW - 10
17.12.2017 02:00:00 10,0 9,0 9 5 ZZO - 10
17.12.2017 01:00:00 10,2 9,3 5 3 N 1009,2 10
17.12.2017 00:00:00 10,0 9,0 4 2 - - 10
16.12.2017 23:00:00 11,0 10,0 4 2 - - 10
16.12.2017 22:00:00 11,0 9,9 4 2 N 1008,6 10
16.12.2017 21:00:00 11,0 10,0 4 2 - - 10
16.12.2017 20:00:00 11,0 10,0 2 1 - - 10
16.12.2017 19:00:00 12,0 10,9 5 3 NNO 1008,0 10
16.12.2017 18:00:00 12,0 11,0 8 4 NO - 10
16.12.2017 17:00:00 12,0 11,0 5 3 N - 10
16.12.2017 16:00:00 12,2 11,1 5 3 W 1006,7 10
16.12.2017 15:00:00 13,0 12,0 2 1 - - 10
16.12.2017 14:00:00 13,0 12,0 8 4 Z - 10
16.12.2017 13:00:00 13,4 12,1 9 5 ZZW 1006,9 10
16.12.2017 12:00:00 14,0 13,0 11 6 Z - 10
16.12.2017 11:00:00 16,0 14,0 8 4 ZZW - 10
16.12.2017 10:00:00 15,4 13,8 8 4 Z 1007,0 10
16.12.2017 09:00:00 15,0 13,0 13 7 ZZW - 10
16.12.2017 08:00:00 14,0 13,0 21 11 Z - 10
16.12.2017 07:00:00 14,0 11,4 18 10 Z 1006,0 10
16.12.2017 06:00:00 15,0 12,0 26 14 Z - 10
16.12.2017 05:00:00 14,0 12,0 24 13 Z - 10
16.12.2017 04:00:00 13,8 12,4 18 10 Z 1005,1 10
16.12.2017 03:00:00 14,0 13,0 26 14 ZZO - 10
16.12.2017 02:00:00 14,0 13,0 29 16 Z - 10
16.12.2017 01:00:00 14,0 12,9 29 16 Z 1005,6 10
16.12.2017 00:00:00 15,0 14,0 26 14 Z - 10
15.12.2017 23:00:00 14,0 13,0 26 14 Z - 10
15.12.2017 22:00:00 14,4 13,1 28 15 Z 1007,5 10
15.12.2017 21:00:00 14,0 13,0 26 14 Z - 10
15.12.2017 20:00:00 14,0 13,0 26 14 Z - 10
15.12.2017 19:00:00 13,8 12,5 24 13 Z 1008,0 10
15.12.2017 18:00:00 14,0 12,0 31 17 Z - 10
15.12.2017 17:00:00 14,0 12,0 28 15 Z - 10
15.12.2017 16:00:00 15,0 11,2 31 17 Z 1009,3 10
15.12.2017 15:00:00 15,0 10,0 31 17 Z - 10
15.12.2017 14:00:00 16,0 11,0 29 16 ZZW - 10
15.12.2017 13:00:00 15,6 11,4 34 18 ZZW 1011,1 10
15.12.2017 12:00:00 15,0 11,0 34 18 ZZO - 10
15.12.2017 11:00:00 15,0 13,0 24 13 Z - 10
15.12.2017 10:00:00 14,0 12,5 22 12 Z 1012,7 10
15.12.2017 09:00:00 14,0 13,0 22 12 ZZO - 10
15.12.2017 08:00:00 13,0 12,0 18 10 Z - 10
15.12.2017 07:00:00 12,0 11,2 16 9 ZZO 1012,9 10
15.12.2017 06:00:00 12,0 11,0 15 8 Z - 10
15.12.2017 05:00:00 11,0 10,0 11 6 ZZO - 10
15.12.2017 04:00:00 10,0 8,9 11 6 ZZO 1013,9 10
15.12.2017 03:00:00 10,0 9,0 13 7 ZO - 10
15.12.2017 02:00:00 10,0 9,0 15 8 ZZO - 10
15.12.2017 01:00:00 10,4 8,8 11 6 ZZO 1015,0 10
15.12.2017 00:00:00 11,0 9,0 11 6 ZZO - 10
14.12.2017 23:00:00 11,0 9,0 11 6 ZO - 10
14.12.2017 22:00:00 11,2 9,5 13 7 ZZO 1015,8 10
14.12.2017 21:00:00 11,0 9,0 11 6 ZZO - 10
14.12.2017 20:00:00 10,0 8,0 8 4 ZZO - 10
14.12.2017 19:00:00 10,4 8,3 5 3 ZO 1016,7 10
14.12.2017 18:00:00 11,0 9,0 13 7 Z - 10
14.12.2017 17:00:00 12,0 8,0 13 7 ZW - 10
14.12.2017 16:00:00 13,4 7,6 16 9 ZZW 1016,5 10
14.12.2017 15:00:00 14,0 7,0 22 12 WZW - 10
14.12.2017 14:00:00 15,0 8,0 24 13 WZW - 10
14.12.2017 13:00:00 15,0 8,0 16 9 W 1017,1 10
14.12.2017 12:00:00 14,0 7,0 11 6 ZW - 10
14.12.2017 11:00:00 14,0 8,0 13 7 W - 10
14.12.2017 10:00:00 13,6 8,9 11 6 W 1018,4 10
14.12.2017 09:00:00 10,0 9,0 8 4 Z - 10
14.12.2017 08:00:00 7,0 6,0 9 5 ZZO - 10
14.12.2017 07:00:00 5,0 3,7 5 3 ZW 1018,4 10
14.12.2017 06:00:00 6,0 5,0 2 1 - - 10
14.12.2017 05:00:00 9,0 8,0 9 5 W - 10
14.12.2017 04:00:00 6,8 6,1 4 2 N 1018,3 10
14.12.2017 03:00:00 8,0 7,0 5 3 WNW - 10
14.12.2017 02:00:00 9,0 8,0 9 5 ZZW - 10
14.12.2017 01:00:00 10,4 9,6 11 6 W 1018,0 10
14.12.2017 00:00:00 10,0 10,0 4 2 ZO - 10
13.12.2017 23:00:00 11,0 11,0 5 3 Z - 10
13.12.2017 22:00:00 11,8 11,0 8 4 NW 1018,2 10
13.12.2017 21:00:00 13,0 13,0 8 4 W - 10
13.12.2017 20:00:00 14,0 13,0 5 3 WZW - 10
13.12.2017 19:00:00 13,6 12,7 2 1 N 1018,1 10
13.12.2017 18:00:00 14,0 13,0 5 3 - - 10
13.12.2017 17:00:00 15,0 13,0 9 5 Z - 10
13.12.2017 16:00:00 15,2 13,4 13 7 ZZW 1018,1 10
13.12.2017 15:00:00 17,0 14,0 9 5 ZZW - 10
13.12.2017 14:00:00 18,0 15,0 15 8 Z - 10
13.12.2017 13:00:00 18,0 15,6 15 8 ZZO 1018,8 10
13.12.2017 12:00:00 17,0 16,0 18 10 ZZO - 10
13.12.2017 11:00:00 16,0 15,0 16 9 Z - 10
13.12.2017 10:00:00 15,2 14,4 18 10 Z 1020,6 10
13.12.2017 09:00:00 15,0 14,0 15 8 Z - 10
13.12.2017 08:00:00 14,0 13,0 13 7 ZZO - 10
13.12.2017 07:00:00 14,0 13,1 15 8 ZZO 1020,3 10
13.12.2017 06:00:00 14,0 13,0 16 9 Z - 10
13.12.2017 05:00:00 14,0 13,0 21 11 Z - 10
13.12.2017 04:00:00 14,8 13,8 21 11 ZZO 1020,3 10
13.12.2017 03:00:00 14,0 13,0 21 11 ZZO - 10
13.12.2017 02:00:00 15,0 14,0 18 10 Z - 10
13.12.2017 01:00:00 14,8 13,8 18 10 Z 1020,4 10
13.12.2017 00:00:00 15,0 14,0 21 11 Z - 10
12.12.2017 23:00:00 15,0 14,0 22 12 Z - 10
12.12.2017 22:00:00 15,0 13,7 24 13 Z 1020,4 10
12.12.2017 21:00:00 15,0 14,0 24 13 Z - 10

tt = temperatuur
td = dauwpunt
ff = windsnelheid
dd = windrichting
ppp = luchtdruk
vv = zicht

Weerstations in de omgeving